Location: Maiden
(35.5760°N, 81.2120°W)
Time: 13:54:25
(UTC-04:00)

BREEZE-M R/B - Pass Details

Date: 14 June 2018
Orbit: 312 x 4574 km, 49.7° (Epoch: 22 October)

Event Time Altitude Azimuth Distance (km) Brightness Sun altitude
Rises 22:31:34 0° 312° (NW) 2,543 7.9 -18.2°
Reaches altitude 10° 22:34:03 10° 319° (NW) 1,399 6.2 -18.5°
Enters shadow 22:36:37 43° 24° (NNE) 465 2.6 -18.9°
